1483606800.24,62213,7.19,71548.5,-17.85,-30.83,-32.29,0,*6D
1483606801.5,62214,7.19,71550.3,-17.85,-30.33,-31.95,0,*65
1483606802.73,62215,7.19,71550.5,-17.85,-30.33,-32.13,0,*69
1483606803.99,62216,7.19,71554.8,-17.85,-30.55,-32.23,0,*69
1483606805.27,62217,7.13,71554.8,-17.85,-30.51,-32.07,0,*6A
1483606806.57,62218,7.19,71560.3,-17.85,-29.29,-30.73,0,*63
1483606807.81,62219,7.13,71554.3,-17.85,-29.07,-30.67,0,*6B
1483606809.09,62220,7.19,71556.0,-17.85,-29.35,-31.45,0,*61
1483606810.34,62221,7.19,71556.5,-17.85,-29.83,-31.45,0,*6D
1483606811.6,62222,7.19,71556.3,-17.85,-30.17,-31.79,0,*64
1483606812.86,62223,7.19,71560.3,-17.85,-30.17,-31.79,0,*65
1483606814.12,62224,7.13,71562.5,-17.85,-30.83,-32.29,0,*69
1483606815.4,62225,7.13,71564.0,-17.85,-30.39,-31.73,0,*65
1483606816.66,62226,7.19,71572.0,-17.85,-30.11,-31.91,0,*60
1483606817.92,62227,7.19,71568.5,-17.85,-30.39,-31.45,0,*62
1483606819.19,62228,7.13,71574.5,-17.85,-29.83,-30.89,0,*65
1483606820.44,62229,7.19,71574.0,-17.85,-29.83,-31.05,0,*61
1483606821.7,62230,7.19,71570.3,-17.85,-30.11,-31.23,0,*6E
1483606822.99,62231,7.19,71578.3,-17.85,-30.01,-31.23,0,*6E
1483606824.23,62232,7.19,71576.8,-17.85,-30.27,-31.33,0,*68
1483606825.48,62233,7.13,71576.0,-17.85,-29.67,-30.83,0,*6F
1483606826.75,62234,7.13,71574.0,-17.85,-29.67,-30.73,0,*67
1483606828.04,62235,7.19,71576.3,-17.85,-30.39,-31.95,0,*6C
1483606829.28,62236,7.19,71580.0,-17.85,-29.95,-31.17,0,*6B
1483606830.55,62237,7.19,71584.0,-17.85,-29.95,-31.39,0,*66
1483606831.82,62238,7.19,71582.0,-17.85,-29.61,-31.23,0,*69
1483606833.05,62239,7.19,71574.8,-17.85,-29.79,-31.01,0,*61
1483606834.29,62240,7.19,71576.8,-17.85,-29.61,-31.05,0,*62
1483606835.57,62241,7.19,71580.5,-17.85,-29.83,-31.23,0,*6B
1483606836.83,62242,7.13,71578.3,-17.85,-29.79,-31.23,0,*6D
1483606838.08,62243,7.13,71584.0,-17.85,-29.67,-31.17,0,*64
1483606839.31,62244,7.19,71580.5,-17.85,-29.79,-31.01,0,*6B
1483606840.56,62245,7.19,71584.8,-17.83,-29.73,-31.17,0,*61
1483606841.8,62246,7.19,71590.0,-17.85,-29.79,-31.17,0,*6E
1483606843.04,62247,7.19,71590.0,-17.85,-29.45,-30.27,0,*62
1483606844.28,62248,7.19,71582.0,-17.83,-29.01,-29.61,0,*61
1483606845.52,62249,7.19,71576.8,-17.83,-28.59,-29.23,0,*6A
1483606846.77,62250,7.19,71582.0,-17.83,-29.39,-30.11,0,*6C
1483606847.98,62251,7.19,71580.3,-17.83,-28.85,-29.07,0,*64
1483606849.25,62252,7.19,71576.8,-17.79,-28.31,-28.47,0,*68
1483606850.51,62253,7.19,71580.8,-17.79,-27.83,-29.07,0,*6A
1483606851.78,62254,7.19,71574.8,-17.79,-28.69,-30.89,0,*68
1483606853.02,62255,7.19,71584.0,-17.83,-29.61,-31.57,0,*67
1483606854.31,62256,7.19,71590.0,-17.79,-30.39,-32.19,0,*6D
1483606855.55,62257,7.19,71590.5,-17.83,-30.45,-31.85,0,*64
1483606856.82,62258,7.19,71588.8,-17.83,-30.61,-32.07,0,*64
1483606858.04,62259,7.19,71592.3,-17.83,-30.33,-30.83,0,*6C
1483606859.3,62260,7.19,71578.0,-17.83,-29.13,-30.05,0,*62
1483606860.57,62261,7.19,71566.8,-17.79,-29.73,-31.29,0,*6F
1483606861.86,62262,7.19,71590.0,-17.85,-29.29,-30.51,0,*6E
1483606863.1,62263,7.19,71574.3,-17.83,-30.27,-31.91,0,*62
1483606864.38,62264,7.19,71574.5,-17.83,-31.11,-32.79,0,*64
1483606865.62,62265,7.19,71574.3,-17.83,-31.17,-32.79,0,*63
1483606866.86,62266,7.19,71568.0,-17.83,-31.51,-32.91,0,*64
1483606868.09,62267,7.19,71568.3,-17.85,-31.05,-32.57,0,*68
1483606869.36,62268,7.19,71574.8,-17.85,-31.23,-32.69,0,*6E
1483606870.65,62269,7.13,71570.5,-17.85,-31.39,-32.79,0,*65
1483606871.91,62270,7.19,71588.3,-17.85,-31.17,-32.63,0,*6A
1483606873.2,62271,7.19,71564.5,-17.85,-31.23,-32.45,0,*68
1483606874.46,62272,7.19,71560.8,-17.85,-31.39,-32.23,0,*60
1483606875.72,62273,7.19,71558.8,-17.85,-30.83,-31.57,0,*61
1483606876.96,62274,7.19,71554.5,-17.85,-31.17,-31.05,0,*6D
1483606878.23,62275,7.19,71548.0,-17.85,-30.33,-30.89,0,*6E
1483606879.47,62276,7.19,71556.8,-17.85,-30.83,-32.39,0,*6F
1483606880.71,62277,7.13,71558.3,-17.85,-31.33,-32.69,0,*61
1483606881.97,62278,7.19,71546.8,-17.85,-30.83,-32.29,0,*60
1483606883.23,62279,7.19,71564.3,-17.85,-31.33,-32.63,0,*65
1483606884.5,62280,7.19,71570.8,-17.85,-31.23,-32.69,0,*68
1483606885.76,62281,7.19,71566.3,-17.85,-30.89,-32.57,0,*65
1483606887.04,62282,7.19,71572.8,-17.85,-30.55,-32.07,0,*62
1483606888.31,62283,7.19,71566.5,-17.85,-30.83,-32.63,0,*6A
1483606889.57,62284,7.19,71570.0,-17.85,-30.83,-32.45,0,*69
1483606890.86,62285,7.19,71568.5,-17.85,-30.51,-31.95,0,*69
1483606892.09,62286,7.19,71564.3,-17.85,-30.67,-32.13,0,*62
1483606893.36,62287,7.19,71566.3,-17.85,-30.89,-32.39,0,*6B
1483606894.6,62288,7.19,71560.5,-17.85,-31.17,-32.69,0,*67
1483606895.84,62289,7.19,71560.3,-17.85,-31.05,-32.69,0,*65
1483606897.09,62290,7.19,71552.5,-17.85,-30.51,-32.23,0,*63
1483606898.33,62291,7.19,71542.3,-17.85,-30.67,-32.23,0,*67
1483606899.61,62292,7.19,71546.8,-17.85,-30.51,-32.29,0,*6B
1483606900.87,62293,7.19,71546.8,-17.85,-31.05,-32.79,0,*6F
1483606902.16,62294,7.19,71548.0,-17.85,-31.23,-32.97,0,*6C
1483606903.41,62295,7.19,71544.3,-17.87,-31.33,-32.85,0,*6D
1483606904.7,62296,7.19,71548.3,-17.85,-31.39,-32.85,0,*66
1483606905.96,62297,7.19,71548.3,-17.85,-31.17,-32.85,0,*6B
1483606907.2,62298,7.19,71552.3,-17.85,-31.17,-32.69,0,*66
1483606908.44,62299,7.19,71552.3,-17.85,-31.01,-32.69,0,*60
1483606909.68,62300,7.19,71556.3,-17.87,-31.33,-32.85,0,*60
1483606910.92,62301,7.19,71556.3,-17.87,-30.67,-32.45,0,*6D
1483606912.14,62302,7.19,71558.3,-17.87,-31.01,-32.69,0,*61
1483606913.38,62303,7.19,71560.8,-17.85,-31.33,-32.69,0,*63
1483606914.65,62304,7.19,71562.3,-17.85,-31.23,-32.69,0,*65
1483606915.92,62305,7.19,71556.8,-17.85,-31.33,-32.79,0,*64
1483606917.15,62306,7.19,71566.3,-17.85,-31.17,-32.57,0,*6D
1483606918.41,62307,7.19,71560.5,-17.85,-31.39,-32.69,0,*6D
1483606919.7,62308,7.19,71566.8,-17.85,-31.39,-32.79,0,*63
1483606920.92,62309,7.13,71570.5,-17.87,-31.33,-32.69,0,*6B
1483606922.19,62310,7.19,71570.0,-17.87,-31.23,-32.63,0,*68
1483606923.41,62311,7.19,71574.8,-17.87,-31.17,-32.39,0,*61
1483606924.64,62312,7.19,71568.0,-17.85,-31.05,-32.39,0,*63
1483606925.9,62313,7.19,71574.8,-17.85,-31.01,-32.29,0,*67
1483606927.15,62314,7.19,71576.0,-17.85,-31.05,-32.29,0,*64
1483606928.39,62315,7.19,71572.0,-17.85,-31.05,-32.39,0,*64
1483606929.63,62316,7.19,71572.0,-17.85,-31.17,-32.23,0,*6F
1483606930.91,62317,7.19,71574.0,-17.85,-30.73,-31.91,0,*67
1483606932.17,62318,7.19,71570.5,-17.85,-30.33,-31.95,0,*68
1483606933.44,62319,7.19,71570.8,-17.85,-30.73,-32.39,0,*68
1483606934.7,62320,7.19,71578.3,-17.85,-31.05,-32.45,0,*69
1483606935.98,62321,7.19,71578.5,-17.85,-30.89,-32.29,0,*67
1483606937.27,62322,7.19,71580.0,-17.85,-30.89,-32.29,0,*64
1483606938.5,62323,7.19,71582.3,-17.85,-31.01,-32.39,0,*65
1483606939.75,62324,7.19,71580.3,-17.85,-30.55,-32.23,0,*69
1483606940.99,62325,7.19,71584.3,-17.85,-30.83,-32.57,0,*60
1483606942.25,62326,7.19,71580.8,-17.85,-30.83,-32.29,0,*6A
1483606943.54,62327,7.19,71572.0,-17.85,-31.23,-32.97,0,*65
1483606944.78,62328,7.19,71572.3,-17.85,-31.33,-32.69,0,*6A
1483606946.01,62329,7.19,71568.0,-17.85,-31.01,-32.57,0,*67
1483606947.27,62330,7.19,71568.0,-17.85,-31.17,-32.79,0,*64
1483606948.52,62331,7.19,71568.3,-17.85,-31.01,-32.29,0,*67
1483606949.81,62332,7.19,71570.8,-17.85,-30.89,-32.29,0,*65
1483606951.07,62333,7.19,71568.5,-17.85,-31.17,-32.45,0,*68
1483606952.36,62334,7.19,71572.3,-17.85,-31.39,-32.79,0,*6C
1483606953.6,62335,7.19,71578.5,-17.85,-31.33,-32.69,0,*66
1483606954.89,62336,7.19,71582.0,-17.85,-31.23,-32.63,0,*6E
1483606956.12,62337,7.19,71572.3,-17.85,-31.01,-32.57,0,*68
1483606957.35,62338,7.19,71576.5,-17.85,-31.01,-32.39,0,*6F
1483606958.61,62339,7.19,71578.3,-17.85,-31.17,-32.63,0,*66
1483606959.85,62340,7.19,71578.8,-17.85,-31.33,-32.69,0,*64
1483606961.09,62341,7.19,71578.3,-17.85,-31.17,-32.69,0,*63
1483606962.38,62342,7.19,71584.5,-17.85,-31.39,-32.79,0,*6D
1483606963.65,62343,7.19,71580.8,-17.85,-31.61,-33.21,0,*6D
1483606964.91,62344,7.19,71578.5,-17.85,-31.57,-33.03,0,*6F
1483606966.15,62345,7.19,71578.5,-17.85,-31.17,-32.69,0,*67
1483606967.39,62346,7.19,71572.5,-17.85,-31.17,-32.69,0,*64
1483606968.65,62347,7.19,71580.8,-17.85,-31.05,-32.63,0,*6C
1483606969.91,62348,7.19,71574.8,-17.85,-31.17,-32.79,0,*6B
1483606971.16,62349,7.19,71572.5,-17.85,-31.33,-32.69,0,*6D
1483606972.4,62350,7.19,71568.0,-17.85,-31.17,-32.69,0,*63
1483606973.64,62351,7.19,71572.5,-17.85,-31.33,-32.69,0,*64
1483606974.89,62352,7.19,71570.3,-17.85,-31.05,-32.63,0,*68
1483606976.13,62353,7.19,71578.5,-17.85,-31.05,-32.39,0,*66
1483606977.4,62354,7.19,71584.3,-17.85,-30.67,-31.95,0,*61
1483606978.69,62355,7.19,71584.3,-17.85,-30.89,-32.45,0,*6E
1483606979.95,62356,7.19,71586.5,-17.85,-30.89,-32.23,0,*6D
1483606981.21,62357,7.19,71586.5,-17.85,-30.67,-31.73,0,*6A
1483606982.47,62358,7.19,71578.3,-17.85,-30.83,-32.29,0,*63
1483606983.73,62359,7.19,71578.0,-17.85,-31.33,-32.63,0,*66
1483606984.97,62360,7.19,71580.5,-17.85,-31.79,-33.15,0,*62
1483606986.24,62361,7.19,71586.5,-17.85,-30.39,-31.57,0,*62
1483606987.48,62362,7.19,71578.0,-17.85,-30.83,-31.79,0,*6C
1483606988.74,62363,7.19,71572.3,-17.85,-30.33,-31.61,0,*6F
1483606990.0,62364,7.19,71584.8,-17.85,-30.17,-31.79,0,*67
1483606991.26,62365,7.19,71576.8,-17.85,-30.67,-32.29,0,*67
1483606992.52,62366,7.19,71594.0,-17.85,-31.17,-32.97,0,*67
1483606993.76,62367,7.19,71590.8,-17.87,-31.73,-33.03,0,*6A
1483606994.98,62368,7.19,71596.8,-17.87,-31.33,-32.69,0,*6C
1483606996.22,62369,7.19,71590.8,-17.85,-31.17,-32.57,0,*64
1483606997.45,62370,7.19,71588.8,-17.87,-31.01,-32.45,0,*6A
1483606998.69,62371,7.19,71580.3,-17.87,-30.73,-32.23,0,*6F
1483606999.96,62372,7.19,71582.0,-17.85,-30.73,-32.39,0,*65
1483607001.22,62373,7.19,71580.0,-17.85,-30.83,-32.45,0,*60
1483607002.49,62374,7.19,71572.5,-17.85,-31.23,-32.69,0,*62
1483607003.73,62375,7.19,71570.8,-17.85,-31.33,-32.69,0,*62
1483607004.99,62376,7.19,71574.5,-17.85,-31.05,-32.45,0,*6A
1483607006.25,62377,7.19,71570.3,-17.85,-31.17,-32.63,0,*6C
1483607007.49,62378,7.19,71570.3,-17.87,-31.23,-32.57,0,*61
1483607008.76,62379,7.19,71574.5,-17.87,-30.73,-31.91,0,*6D
1483607010.01,62380,7.19,71572.3,-17.87,-30.83,-32.45,0,*6E
1483607011.25,62381,7.19,71574.5,-17.87,-31.23,-32.57,0,*67
1483607012.45,62382,7.19,71578.0,-17.87,-31.05,-32.57,0,*60
1483607013.7,62383,7.19,71578.5,-17.87,-31.05,-31.23,0,*61
1483607014.99,62384,7.19,71574.3,-17.85,-30.17,-30.17,0,*60
1483607016.21,62385,7.19,71568.5,-17.87,-29.83,-29.45,0,*69
1483607017.49,62386,7.19,71562.5,-17.85,-29.51,-28.31,0,*65
1483607018.75,62387,7.19,71556.0,-17.85,-28.05,-27.71,0,*6F
1483607019.98,62388,7.19,71556.3,-17.85,-26.87,-26.45,0,*62
1483607021.22,62389,7.19,71546.0,-17.85,-27.93,-27.93,0,*6D
1483607022.48,62390,7.19,71564.5,-17.85,-27.07,-27.45,0,*63
1483607023.75,62391,7.19,71564.8,-17.85,-28.31,-30.73,0,*6B
1483607024.99,62392,7.19,71578.8,-17.87,-30.73,-32.69,0,*6C
1483607026.21,62393,7.19,71576.3,-17.87,-30.83,-32.39,0,*67
1483607027.46,62394,7.19,71590.5,-17.87,-30.67,-32.07,0,*67
1483607028.69,62395,7.19,71590.5,-17.87,-30.55,-32.23,0,*61
1483607029.93,62396,7.19,71582.5,-17.87,-31.33,-32.97,0,*6C
1483607031.17,62397,7.19,71582.3,-17.87,-30.73,-32.23,0,*67
1483607032.42,62398,7.19,71580.8,-17.87,-29.83,-31.23,0,*6C
1483607033.67,62399,7.19,71578.0,-17.89,-29.57,-31.05,0,*6E
1483607034.94,62400,7.19,71580.0,-17.89,-30.17,-32.35,0,*65
1483607036.18,62401,7.19,71540.8,-17.87,-31.01,-31.23,0,*68
1483607037.41,62402,7.19,71546.0,-17.89,-28.15,-29.23,0,*61
1483607038.68,62403,7.19,71570.0,-17.89,-28.47,-30.33,0,*6E
1483607039.97,62404,7.19,71580.5,-17.89,-28.63,-31.11,0,*6E
1483607041.24,62405,7.19,71570.3,-17.87,-29.73,-31.95,0,*6D
1483607042.48,62406,7.19,71550.5,-17.89,-30.23,-31.45,0,*60
1483607043.75,62407,7.19,71560.5,-17.89,-29.13,-29.57,0,*60
1483607044.99,62408,7.19,71586.8,-17.93,-28.97,-29.67,0,*6A
1483607046.29,62409,7.19,71576.8,-17.89,-28.63,-30.73,0,*66
1483607047.58,62410,7.19,71580.8,-17.89,-30.17,-32.63,0,*67
1483607048.87,62411,7.19,71574.5,-17.89,-30.61,-32.29,0,*69
1483607050.15,62412,7.19,71570.0,-17.89,-30.39,-31.95,0,*63
1483607051.41,62413,7.19,71576.0,-17.93,-30.01,-31.67,0,*6F
1483607052.65,62414,7.19,71564.3,-17.93,-31.05,-32.91,0,*67
1483607053.93,62415,7.19,71566.5,-17.93,-30.55,-32.45,0,*6B
1483607055.19,62416,7.19,71572.0,-17.93,-30.55,-32.35,0,*6F
1483607056.48,62417,7.19,71564.5,-17.89,-30.77,-32.63,0,*66
1483607057.78,62418,7.19,71574.8,-17.89,-31.23,-32.85,0,*61
1483607059.07,62419,7.19,71568.5,-17.89,-31.39,-32.85,0,*6B
1483607060.37,62420,7.19,71568.0,-17.89,-31.61,-33.09,0,*69
1483607061.66,62421,7.19,71576.5,-17.93,-31.39,-32.75,0,*64
1483607062.93,62422,7.19,71574.3,-17.95,-31.73,-33.27,0,*69
1483607064.2,62423,7.19,71576.3,-17.93,-31.39,-32.91,0,*6C
1483607065.46,62424,7.19,71570.0,-17.93,-31.05,-32.63,0,*69
1483607066.7,62425,7.19,71572.5,-17.93,-31.05,-32.69,0,*62
1483607067.99,62426,7.19,71578.3,-17.93,-30.73,-32.29,0,*65
1483607069.23,62427,7.19,71570.8,-17.95,-29.95,-31.57,0,*68
1483607070.5,62428,7.19,71572.3,-17.93,-29.83,-31.39,0,*6E
1483607071.77,62429,7.19,71574.8,-17.93,-29.89,-31.79,0,*61
1483607073.03,62430,7.19,71574.5,-17.95,-30.05,-31.73,0,*69
1483607074.26,62431,7.19,71576.0,-17.95,-30.61,-32.57,0,*6F
1483607075.49,62432,7.19,71580.0,-17.95,-30.67,-32.51,0,*6C
1483607076.72,62433,7.19,71580.8,-17.95,-30.77,-32.57,0,*6A
1483607077.93,62434,7.19,71590.5,-17.95,-30.45,-32.23,0,*6F
1483607079.18,62435,7.19,71584.5,-17.95,-30.61,-32.51,0,*6D
1483607080.43,62436,7.19,71588.5,-17.93,-30.55,-32.13,0,*69
1483607081.7,62437,7.19,71584.8,-17.93,-30.89,-32.35,0,*6D
1483607082.94,62438,7.19,71580.5,-17.95,-31.29,-32.97,0,*67
1483607084.16,62439,7.19,71586.0,-17.95,-30.83,-32.51,0,*6D
1483607085.41,62440,7.19,71580.5,-17.95,-31.17,-32.79,0,*65
1483607086.67,62441,7.19,71578.8,-17.95,-30.61,-32.19,0,*62
1483607087.89,62442,7.19,71578.8,-17.95,-30.67,-32.23,0,*6E
1483607089.1,62443,7.19,71582.0,-17.95,-30.83,-32.57,0,*66
1483607090.35,62444,7.19,71586.0,-17.95,-31.17,-32.75,0,*6D
1483607091.59,62445,7.19,71580.5,-17.95,-31.01,-32.79,0,*67
1483607092.84,62446,7.19,71584.5,-17.95,-30.77,-32.51,0,*6E
1483607094.11,62447,7.19,71586.5,-17.97,-30.95,-32.69,0,*6A
1483607095.35,62448,7.19,71584.0,-17.95,-30.77,-32.35,0,*62
1483607096.59,62449,7.19,71580.5,-17.95,-30.95,-32.57,0,*6B
1483607097.81,62450,7.19,71580.5,-17.95,-30.67,-32.35,0,*6A
1483607099.06,62451,7.19,71580.8,-17.95,-30.95,-32.69,0,*6F
1483607100.28,62452,7.19,71578.5,-17.95,-31.17,-32.91,0,*60
1483607101.52,62453,7.19,71576.0,-17.95,-31.01,-32.79,0,*60
1483607102.77,62454,7.19,71572.3,-17.95,-30.83,-32.75,0,*60
1483607104.01,62455,7.19,71576.8,-17.95,-30.83,-32.19,0,*6B
1483607105.23,62456,7.19,71574.5,-17.95,-30.83,-32.35,0,*66
1483607106.47,62457,7.19,71578.5,-17.93,-31.05,-32.51,0,*6C
1483607107.69,62458,7.19,71574.0,-17.95,-31.01,-32.39,0,*6F
1483607108.93,62459,7.19,71572.0,-17.95,-31.01,-32.75,0,*66
1483607110.14,62460,7.19,71572.5,-17.95,-31.01,-32.57,0,*6C
1483607111.42,62461,7.19,71568.8,-17.95,-31.11,-32.75,0,*6C
1483607112.63,62462,7.19,71578.0,-17.95,-30.83,-32.57,0,*65
1483607113.87,62463,7.19,71566.0,-17.97,-31.01,-32.51,0,*6B
1483607115.17,62464,7.19,71574.5,-17.97,-29.29,-29.89,0,*60
1483607116.44,62465,7.19,71566.8,-17.97,-29.61,-31.11,0,*65
1483607117.69,62466,7.19,71582.8,-17.97,-29.57,-31.33,0,*63
1483607118.96,62467,7.19,71582.8,-17.97,-30.95,-32.91,0,*6F
1483607120.21,62468,7.19,71590.0,-17.97,-30.83,-32.69,0,*60
1483607121.46,62469,7.19,71584.5,-17.97,-31.01,-32.69,0,*6A
1483607122.73,62470,7.19,71584.5,-17.97,-30.67,-32.19,0,*64
1483607123.98,62471,7.19,71580.3,-17.97,-30.67,-32.69,0,*62
1483607125.28,62472,7.19,71584.8,-17.97,-30.95,-32.19,0,*6B
1483607126.52,62473,7.19,71586.8,-17.97,-30.45,-32.23,0,*6E
1483607127.76,62474,7.19,71580.0,-17.99,-30.33,-32.07,0,*60
1483607129.03,62475,7.19,71592.5,-17.97,-30.77,-32.51,0,*6C
1483607130.3,62476,7.19,71592.8,-17.97,-30.77,-32.57,0,*69
1483607131.57,62477,7.19,71594.3,-17.97,-31.01,-32.75,0,*68
1483607132.83,62478,7.19,71594.0,-17.97,-30.77,-32.57,0,*67
1483607134.05,62479,7.19,71592.5,-17.99,-30.67,-32.35,0,*6D
1483607135.33,62480,7.19,71594.8,-17.97,-30.83,-32.75,0,*6B
1483607136.54,62481,7.19,71594.0,-17.99,-30.83,-32.57,0,*64
1483607137.79,62482,7.19,71596.8,-17.97,-30.67,-32.39,0,*6B
1483607139.03,62483,7.19,71598.8,-17.97,-30.67,-32.35,0,*66
1483607140.3,62484,7.19,71598.0,-17.97,-30.51,-32.35,0,*64
1483607141.54,62485,7.19,71596.0,-17.97,-30.67,-32.57,0,*64
1483607142.8,62486,7.19,71600.5,-17.97,-30.51,-32.35,0,*66
1483607144.04,62487,7.19,71602.0,-17.97,-30.45,-32.51,0,*60
1483607145.31,62488,7.19,71594.8,-17.97,-30.51,-32.39,0,*64
1483607146.58,62489,7.19,71596.0,-17.97,-30.45,-32.19,0,*62
1483607147.85,62490,7.19,71598.3,-17.97,-30.23,-32.07,0,*65
1483607149.11,62491,7.19,71596.8,-17.97,-30.39,-32.35,0,*6E
1483607150.38,62492,7.19,71598.8,-17.97,-30.61,-32.39,0,*6C
1483607151.64,62493,7.19,71596.5,-17.97,-30.51,-32.35,0,*62
1483607152.86,62494,7.19,71598.5,-17.95,-30.67,-32.35,0,*62
1483607154.07,62495,7.19,71594.3,-17.95,-30.45,-32.23,0,*64
1483607155.28,62496,7.19,71592.5,-17.95,-30.67,-32.57,0,*64
1483607156.52,62497,7.19,71598.5,-17.95,-30.77,-32.57,0,*64
1483607157.74,62498,7.19,71594.8,-17.95,-30.83,-32.91,0,*6A
1483607159.0,62499,7.19,71594.0,-17.97,-30.77,-32.57,0,*68
1483607160.25,62500,7.19,71588.0,-17.95,-30.77,-32.69,0,*66
1483607161.49,62501,7.19,71586.5,-17.95,-30.77,-32.57,0,*6A
1483607162.76,62502,7.19,71596.5,-17.95,-30.95,-32.79,0,*69
1483607164.0,62503,7.19,71602.3,-17.95,-30.83,-32.79,0,*6F
1483607165.28,62504,7.19,71594.5,-17.95,-30.77,-32.75,0,*6F
1483607166.5,62505,7.19,71594.8,-17.95,-30.83,-32.51,0,*63
1483607167.72,62506,7.19,71592.0,-17.95,-30.67,-32.39,0,*64
1483607168.97,62507,7.19,71580.8,-17.95,-31.11,-32.35,0,*69
1483607170.21,62508,7.19,71586.5,-17.95,-30.77,-32.01,0,*60
1483607171.44,62509,7.19,71586.0,-17.95,-30.39,-32.35,0,*6C
1483607172.69,62510,7.19,71588.0,-17.95,-30.83,-32.79,0,*6D
1483607173.93,62511,7.19,71584.0,-17.95,-31.17,-32.97,0,*60
1483607175.19,62512,7.19,71586.5,-17.95,-31.11,-32.97,0,*65
1483607176.44,62513,7.19,71590.0,-17.95,-30.83,-32.79,0,*6E
1483607177.68,62514,7.19,71592.5,-17.97,-31.01,-32.91,0,*66
1483607178.95,62515,7.19,71596.0,-17.97,-30.77,-32.57,0,*6D
1483607180.21,62516,7.19,71600.5,-17.97,-30.51,-32.57,0,*6A
1483607181.46,62517,7.19,71592.3,-17.97,-30.67,-32.51,0,*68
1483607182.69,62518,7.19,71592.5,-17.97,-30.45,-32.35,0,*65
1483607183.96,62519,7.19,71598.0,-17.97,-30.27,-31.91,0,*6D
1483607185.21,62520,7.19,71594.8,-17.99,-30.17,-32.23,0,*60
1483607186.48,62521,7.19,71594.8,-17.97,-30.83,-32.79,0,*6D
1483607187.78,62522,7.19,71590.3,-17.97,-31.11,-32.97,0,*64
1483607189.05,62523,7.19,71590.8,-17.97,-31.45,-33.09,0,*62
1483607190.35,62524,7.19,71594.0,-17.97,-31.11,-32.79,0,*62
1483607191.62,62525,7.19,71590.8,-17.97,-31.01,-32.79,0,*62
1483607192.88,62526,7.19,71592.0,-17.97,-31.33,-32.97,0,*60
1483607194.1,62527,7.19,71598.5,-17.99,-31.33,-33.03,0,*63
1483607195.37,62528,7.19,71596.0,-17.97,-31.29,-32.97,0,*65
1483607196.67,62529,7.19,71596.8,-17.97,-30.95,-32.75,0,*6E
1483607197.92,62530,7.19,71598.5,-17.97,-30.83,-32.51,0,*67
1483607199.19,62531,7.19,71596.3,-17.97,-31.17,-32.75,0,*6C
1483607200.49,62532,7.19,71600.8,-17.97,-31.11,-32.79,0,*65
1483607201.79,62533,7.19,71598.8,-17.97,-30.95,-32.75,0,*65
1483607203.07,62534,7.19,71602.5,-17.97,-31.33,-32.75,0,*6F
1483607204.34,62535,7.19,71604.3,-17.97,-30.27,-31.85,0,*66
1483607205.61,62536,7.19,71600.3,-17.97,-29.95,-31.85,0,*64
1483607206.88,62537,7.19,71606.3,-17.97,-30.83,-32.75,0,*66
1483607208.12,62538,7.19,71612.8,-17.95,-31.17,-32.97,0,*6B
1483607209.36,62539,7.19,71612.3,-17.95,-30.95,-32.57,0,*6D
1483607210.58,62540,7.19,71614.3,-17.95,-31.01,-32.69,0,*62
1483607211.84,62541,7.19,71614.0,-17.97,-30.77,-32.57,0,*6C
1483607213.08,62542,7.19,71616.5,-17.97,-30.45,-32.23,0,*6D
1483607214.33,62543,7.19,71618.3,-17.97,-30.67,-32.51,0,*69
1483607215.57,62544,7.19,71618.0,-17.99,-31.01,-32.79,0,*6B
1483607216.81,62545,7.19,71620.3,-17.97,-30.67,-32.35,0,*6D
1483607218.09,62546,7.19,71616.5,-17.97,-30.77,-32.39,0,*63
1483607219.36,62547,7.19,71614.0,-17.97,-30.83,-32.79,0,*6D
1483607220.65,62548,7.19,71612.5,-17.97,-31.51,-33.09,0,*6A
1483607221.9,62549,7.19,71608.8,-17.97,-30.67,-32.39,0,*6D
1483607223.15,62550,7.19,71602.0,-17.99,-30.83,-32.07,0,*6C
1483607224.4,62551,7.19,71614.8,-17.97,-29.95,-31.17,0,*6E
1483607225.67,62552,7.19,71596.0,-17.97,-29.29,-31.45,0,*6D
1483607226.94,62553,7.19,71604.3,-17.97,-30.77,-32.39,0,*67
1483607228.2,62554,7.19,71608.3,-17.97,-30.67,-32.51,0,*6F
1483607229.41,62555,7.19,71608.0,-17.99,-31.05,-33.03,0,*63
1483607230.63,62556,7.19,71602.5,-17.99,-31.05,-32.39,0,*68
1483607231.92,62557,7.19,71604.8,-17.97,-30.61,-32.19,0,*66
1483607233.19,62558,7.19,71602.3,-17.97,-29.79,-31.51,0,*67
1483607234.43,62559,7.19,71602.0,-17.97,-30.23,-32.23,0,*67
1483607235.7,62560,7.19,71606.3,-17.97,-30.51,-32.69,0,*66
1483607236.94,62561,7.19,71610.0,-17.99,-31.33,-32.97,0,*6D
1483607238.21,62562,7.19,71608.3,-17.95,-30.95,-32.75,0,*63
1483607239.46,62563,7.19,71606.3,-17.97,-30.83,-32.69,0,*6A
1483607240.72,62564,7.19,71604.5,-17.97,-30.95,-32.57,0,*67
1483607241.97,62565,7.19,71604.5,-17.99,-31.17,-32.79,0,*6F
1483607243.24,62566,7.19,71604.3,-17.99,-30.89,-32.75,0,*66
1483607244.49,62567,7.19,71606.0,-17.99,-30.83,-32.45,0,*6E
1483607245.78,62568,7.19,71600.8,-17.97,-30.51,-32.19,0,*69
1483607247.04,62569,7.19,71606.0,-17.97,-30.51,-32.01,0,*61
1483607248.29,62570,7.19,71598.5,-17.95,-30.67,-32.19,0,*67
1483607249.56,62571,7.19,71598.8,-17.97,-30.05,-30.83,0,*61
1483607250.82,62572,7.19,71588.8,-17.95,-29.01,-30.67,0,*66
1483607252.04,62573,7.19,71602.0,-17.95,-29.45,-31.67,0,*66
1483607253.25,62574,7.19,71586.5,-17.95,-30.27,-32.01,0,*6E
1483607254.49,62575,7.19,71588.0,-17.95,-30.27,-31.73,0,*69
1483607255.74,62576,7.19,71600.0,-17.97,-29.57,-31.01,0,*62
1483607257.03,62577,7.19,71598.8,-17.97,-30.51,-31.91,0,*64
1483607258.33,62578,7.19,71610.0,-17.97,-30.51,-31.11,0,*63
1483607259.59,62579,7.19,71600.5,-17.97,-29.57,-29.29,0,*6E
1483607260.84,62580,7.19,71610.0,-17.95,-28.91,-29.61,0,*6D
1483607262.08,62581,7.19,71604.3,-17.97,-28.69,-29.79,0,*60
1483607263.34,62582,7.19,71604.3,-17.97,-28.75,-30.11,0,*68
1483607264.58,62583,7.19,71612.3,-17.95,-28.75,-29.79,0,*6D
1483607265.84,62584,7.19,71612.3,-17.95,-28.75,-29.73,0,*60
1483607267.11,62585,7.19,71614.8,-17.95,-28.59,-30.51,0,*67
1483607268.32,62586,7.19,71614.3,-17.95,-30.11,-32.35,0,*61
1483607269.54,62587,7.19,71614.8,-17.95,-30.83,-32.57,0,*6F
1483607270.78,62588,7.19,71614.0,-17.95,-30.61,-32.35,0,*68
1483607271.99,62589,7.19,71608.8,-17.95,-30.67,-32.23,0,*68
1483607273.23,62590,7.19,71612.0,-17.95,-30.45,-32.19,0,*69
1483607274.5,62591,7.19,71604.8,-17.95,-30.39,-32.07,0,*6C
1483607275.71,62592,7.19,71600.5,-17.95,-30.11,-31.67,0,*60
1483607276.93,62593,7.19,71606.0,-17.95,-29.95,-31.33,0,*64
1483607278.19,62594,7.19,71600.8,-17.93,-30.05,-31.29,0,*6F
1483607279.43,62595,7.19,71602.3,-17.95,-30.11,-31.51,0,*62
1483607280.67,62596,7.19,71602.0,-17.95,-30.23,-31.85,0,*69
1483607281.92,62597,7.19,71602.0,-17.95,-30.27,-31.91,0,*69
1483607283.18,62598,7.19,71600.3,-17.95,-30.39,-31.91,0,*69
1483607284.44,62599,7.19,71600.3,-17.95,-30.61,-32.19,0,*66
1483607285.65,62600,7.19,71602.0,-17.95,-30.45,-32.01,0,*6A
1483607286.9,62601,7.19,71596.3,-17.95,-30.67,-32.19,0,*62
1483607288.13,62602,7.19,71600.0,-17.93,-30.23,-31.67,0,*6D
1483607289.37,62603,7.19,71600.0,-17.97,-30.11,-31.67,0,*69
1483607290.59,62604,7.19,71600.5,-17.95,-30.27,-32.01,0,*6A
1483607291.8,62605,7.19,71598.8,-17.95,-30.23,-31.29,0,*66
1483607293.03,62606,7.19,71604.3,-17.95,-29.45,-29.57,0,*6D
1483607294.24,62607,7.19,71596.0,-17.95,-28.15,-29.07,0,*6D
1483607295.45,62608,7.19,71598.0,-17.95,-28.85,-29.23,0,*6D
1483607296.72,62609,7.19,71592.0,-17.95,-27.99,-28.21,0,*6D
1483607297.99,62610,7.19,71602.0,-17.95,-27.99,-28.91,0,*6E
1483607299.23,62611,7.19,71596.3,-17.95,-27.67,-28.59,0,*6A
1483607300.47,62612,7.19,71592.0,-17.93,-28.31,-28.97,0,*61